Stockholm, Sweden

7:18 AM CET on February 23, 2017 (GMT +0100)
Bromma

Weather History for ESSB - November, 2013

Change the Weather History Date:

Saturday, November 2, 2013

  Actual Average Record
Temperature  
Mean Temperature 40 °F -  
Max Temperature 48 °F 39 °F 55 °F (1999)
Min Temperature 33 °F 32 °F 21 °F (2006)
Degree Days  
Heating Degree Days 24    
Moisture  
Dew Point 41 °F    
Average Humidity 94    
Maximum Humidity 100    
Minimum Humidity 80    
Precipitation  
Precipitation 0.00 in - - ()
Sea Level Pressure  
Sea Level Pressure 29.57 in    
Wind  
Wind Speed 4 mph ()    
Max Wind Speed 8 mph    
Max Gust Speed -    
Visibility 6.4 miles    
Events Fog    
Averages and records for this station are not official NWS values.
T = Trace of Precipitation, MM = Missing Value Source: Averaged Metar Reports

Daily Weather History Graph

Daily Weather History Graph

Search for Another Location

Airport or City:

Trip Planner

Search our weather history database for the weather conditions in past years. The results will help you decide how hot, cold, wet, or windy it might be!

Date:

Astronomy

Nov. 02, 2013 Rise Set
Actual Time 7:10 AM CET 3:52 PM CET
Civil Twilight 6:25 AM CET 4:36 PM CET
Nautical Twilight 5:37 AM CET 5:25 PM CET
Astronomical Twilight 4:49 AM CET 6:12 PM CET
Moon 5:33 AM CET (11/2) 3:21 PM CET (11/2)
Length of Visible Light 10h 10m
Length of Day
8h 42m
Waning Crescent, 2% of the Moon is Illuminated
Nov 2
Waning Crescent
Nov 3
New
Nov 10
First Quarter
Nov 17
Full
Nov 25
Last Quarter

Hourly Weather History & Observations

Time (CET) Temp. Windchill Dew Point Humidity Pressure Visibility Wind Dir Wind Speed Gust Speed Precip Events Conditions
12:00 AM 42 °F - 40 °F 92% 29.63 in 14 mi SSW 4.5 mph - -  
12:20 AM 42.8 °F 39.3 °F 41.0 °F 93% 29.62 in 6.2 mi SW 5.8 mph - N/A   Unknown
12:50 AM 41.0 °F 38.0 °F 39.2 °F 93% 29.62 in 6.2 mi SSW 4.6 mph - N/A   Unknown
1:00 AM 40 °F - 39 °F 95% 29.63 in 14 mi South 2.2 mph - -   Scattered Clouds
1:20 AM 41.0 °F 37.1 °F 39.2 °F 93% 29.62 in 6.2 mi SSW 5.8 mph - N/A   Partly Cloudy
1:50 AM 41.0 °F 37.1 °F 41.0 °F 100% 29.62 in 6.2 mi SSW 5.8 mph - N/A   Scattered Clouds
2:00 AM 42 °F - 41 °F 93% 29.63 in 12 mi SSW 4.5 mph - -   Scattered Clouds
2:20 AM 41.0 °F 38.0 °F 41.0 °F 100% 29.62 in 6.2 mi SW 4.6 mph - N/A   Mostly Cloudy
2:50 AM 41.0 °F 36.4 °F 41.0 °F 100% 29.62 in 6.2 mi SW 6.9 mph - N/A   Partly Cloudy
3:20 AM 42.8 °F 38.6 °F 41.0 °F 93% 29.62 in 6.2 mi SW 6.9 mph - N/A   Unknown
3:50 AM 42.8 °F 41.1 °F 41.0 °F 93% 29.59 in 6.2 mi SW 3.5 mph - N/A   Scattered Clouds
4:00 AM 42 °F - 41 °F 94% 29.62 in 11 mi SSW 2.2 mph - -   Mostly Cloudy
4:20 AM 42.8 °F 39.3 °F 41.0 °F 93% 29.59 in 6.2 mi SW 5.8 mph - N/A   Scattered Clouds
4:50 AM 42.8 °F 38.6 °F 41.0 °F 93% 29.59 in 6.2 mi SSW 6.9 mph - N/A   Unknown
5:00 AM 42 °F - 40 °F 91% 29.60 in 12 mi SSW 4.5 mph - -  
5:20 AM 41.0 °F 36.4 °F 41.0 °F 100% 29.59 in 6.2 mi SSW 6.9 mph - N/A   Unknown
5:50 AM 41.0 °F 37.1 °F 41.0 °F 100% 29.59 in 6.2 mi SSW 5.8 mph - N/A   Unknown
6:00 AM 42 °F - 41 °F 93% 29.60 in 11 mi South 4.5 mph - -   Scattered Clouds
6:20 AM 41.0 °F 36.4 °F 41.0 °F 100% 29.59 in 6.2 mi SSW 6.9 mph - N/A   Partly Cloudy
6:50 AM 41.0 °F 37.1 °F 41.0 °F 100% 29.56 in 6.2 mi SSW 5.8 mph - N/A   Unknown
7:00 AM 42 °F - 41 °F 95% 29.59 in 7 mi South 4.5 mph - -  
7:20 AM 41.0 °F 38.0 °F 41.0 °F 100% 29.56 in 6.2 mi South 4.6 mph - N/A   Unknown
7:50 AM 41.0 °F 37.1 °F 41.0 °F 100% 29.56 in - South 5.8 mph - N/A   Clear
8:00 AM 42 °F - 42 °F 99% 29.59 in 8 mi SSW 4.5 mph - -  
8:20 AM 42.8 °F 38.6 °F 42.8 °F 100% 29.59 in - SSW 6.9 mph - N/A   Clear
8:50 AM 44.6 °F 40.2 °F 42.8 °F 93% 29.56 in 6.2 mi SSW 8.1 mph - N/A   Partly Cloudy
9:00 AM 44 °F - 42 °F 90% 29.59 in 12 mi SSW 6.7 mph - -   Scattered Clouds
9:20 AM 44.6 °F 40.7 °F 42.8 °F 93% 29.56 in 6.2 mi SSW 6.9 mph - N/A   Partly Cloudy
9:50 AM 44.6 °F 40.7 °F 42.8 °F 93% 29.56 in 6.2 mi SSW 6.9 mph - N/A   Partly Cloudy
10:00 AM 44 °F - 42 °F 92% 29.60 in 16 mi South 4.5 mph - -   Scattered Clouds
10:20 AM 44.6 °F 42.2 °F 42.8 °F 93% 29.56 in 6.2 mi SSW 4.6 mph - N/A   Mostly Cloudy
10:50 AM 46.4 °F 42.9 °F 42.8 °F 87% 29.59 in 6.2 mi SSW 6.9 mph - N/A   Scattered Clouds
11:00 AM 47 °F - 43 °F 82% 29.58 in 13 mi SSW 6.7 mph - -   Mostly Cloudy
11:20 AM 48.2 °F - 44.6 °F 87% 29.56 in 6.2 mi SSW 6.9 mph - N/A   Scattered Clouds
11:50 AM 46.4 °F 42.9 °F 42.8 °F 87% 29.56 in 6.2 mi South 6.9 mph - N/A   Mostly Cloudy
12:00 PM 46 °F - 43 °F 86% 29.58 in 14 mi South 6.7 mph - -   Scattered Clouds
12:20 PM 46.4 °F 42.9 °F 42.8 °F 87% 29.56 in 6.2 mi SSW 6.9 mph - N/A   Mostly Cloudy
12:50 PM 46.4 °F 43.5 °F 44.6 °F 93% 29.56 in 6.2 mi SSW 5.8 mph - N/A   Mostly Cloudy
1:00 PM 47 °F - 44 °F 84% 29.56 in 12 mi SSW 6.7 mph - -   Scattered Clouds
1:20 PM 48.2 °F - 44.6 °F 87% 29.53 in 6.2 mi SSW 5.8 mph - N/A   Mostly Cloudy
1:50 PM 48.2 °F - 42.8 °F 82% 29.53 in 6.2 mi SSW 6.9 mph - N/A   Scattered Clouds
2:00 PM 48 °F - 44 °F 80% 29.55 in 14 mi SW 4.5 mph - -   Partly Cloudy
2:20 PM 48.2 °F - 42.8 °F 82% 29.53 in 6.2 mi SW 6.9 mph - N/A   Scattered Clouds
2:50 PM 46.4 °F 42.9 °F 42.8 °F 87% 29.53 in 6.2 mi SW 6.9 mph - N/A   Mostly Cloudy
3:00 PM 47 °F - 43 °F 82% 29.55 in 17 mi SW 4.5 mph - -   Scattered Clouds
3:20 PM 46.4 °F 44.3 °F 42.8 °F 87% 29.53 in 6.2 mi SW 4.6 mph - N/A   Mostly Cloudy
3:50 PM 44.6 °F 43.1 °F 42.8 °F 93% 29.53 in 6.2 mi South 3.5 mph - N/A   Partly Cloudy
4:00 PM 44 °F - 42 °F 89% 29.55 in 13 mi SSE 2.2 mph - -  
4:20 PM 42.8 °F - 41.0 °F 93% 29.53 in 6.2 mi Variable 2.3 mph - N/A   Partly Cloudy
4:50 PM 41.0 °F 39.0 °F 41.0 °F 100% 29.53 in - South 3.5 mph - N/A   Clear
5:00 PM 40 °F - 39 °F 97% 29.55 in 7 mi South 2.2 mph - -  
5:20 PM 39.2 °F 35.9 °F 39.2 °F 100% 29.53 in 6.2 mi South 4.6 mph - N/A   Unknown
5:50 PM 41.0 °F 37.1 °F 41.0 °F 100% 29.53 in 6.2 mi South 5.8 mph - N/A   Unknown
6:00 PM 40 °F - 40 °F 99% 29.54 in 6 mi SSW 2.2 mph - -  
6:20 PM 39.2 °F 37.0 °F 39.2 °F 100% 29.53 in 6.2 mi SSW 3.5 mph - N/A   Unknown
6:50 PM 39.2 °F - 39.2 °F 100% 29.53 in 0.5 mi South 2.3 mph - N/A Fog Fog
7:00 PM 39 °F - 39 °F 98% 29.54 in 2 mi SSW 2.2 mph - - Fog Fog
7:20 PM 39.2 °F - 39.2 °F 100% 29.53 in 0.2 mi Variable 2.3 mph - N/A Fog Fog
7:50 PM 39.2 °F - 39.2 °F 100% 29.53 in - SSW 2.3 mph - N/A Fog Fog
8:00 PM 35 °F - 35 °F 100% 29.54 in 0 mi Calm Calm - - Fog Fog
8:20 PM 35.6 °F - 35.6 °F 100% 29.53 in 0.2 mi Calm Calm - N/A Fog Fog
8:50 PM 35.6 °F - 35.6 °F 100% 29.53 in 0.2 mi Variable 2.3 mph - N/A Fog Fog
9:00 PM 34 °F - 34 °F 100% 29.55 in 0 mi Calm Calm - - Fog Fog
9:20 PM 33.8 °F - 33.8 °F 100% 29.53 in 0.1 mi ESE 2.3 mph - N/A Fog Fog
9:50 PM 33.8 °F - 33.8 °F 100% 29.53 in 0.1 mi Variable 1.2 mph - N/A Fog Fog
10:00 PM 35 °F - 35 °F 100% 29.55 in 0 mi East 2.2 mph - - Fog Fog
10:20 PM 37.4 °F - 37.4 °F 100% 29.53 in 0.1 mi East 2.3 mph - N/A Fog Fog
10:50 PM 39.2 °F - 39.2 °F 100% 29.53 in 0.1 mi South 2.3 mph - N/A Fog Fog
11:00 PM 38 °F - 38 °F 100% 29.55 in 0 mi SSE 2.2 mph - - Fog Fog
11:20 PM 37.4 °F - 37.4 °F 100% 29.53 in 0.1 mi Variable 1.2 mph - N/A Fog Fog
11:50 PM 37.4 °F - 37.4 °F 100% 29.53 in 0.0 mi Calm Calm - N/A Fog Fog